Погода в Сикирресе

Коста-Рика     10°05′51″N   83°30′22″W
темп.,
°C
ветер,
м/с
пор.,
м/с
влажн.,
%
обл.,
%
осадки,
мм/ч
давл.,
гПа
погр.,
м
9 августа, вт
вт900:00+20юз229625 0.6 101346
03:00+20юз219557 0.0 101128
06:00+20юз229499 0.0 101343
09:00+27св217083 0.0 1014826
12:00+28св2262100 0.6 10111383
15:00+25св238297 2.6 1011736
18:00+22сз009784 4.9 101316
21:00+21юз1197100 1.1 101419
10 августа, ср
ср1000:00+21юз1196100 1.4 101318
03:00+20юз2196100 0.1 101327
06:00+20юз2195100 0.4 101338
09:00+26ссв1175100 0.4 1014595
12:00+27ссв227453 1.8 1012985
15:00+24ссв2291100 5.4 1012381
18:00+21зсз009987 9.6 101330
21:00+21ююз1197100 4.4 101532
11 августа, чт
чт1100:00+21юз119697 4.6 101418
03:00+20юз1196100 0.8 101229
06:00+20зюз119796 4.6 101326
09:00+23с1289100 2.3 1014419
12:00+24с2290100 6.0 1013563
15:00+22с1298100 7.1 1012145
18:00+21сз0199100 12.9 101394
21:00+20ююз1198100 2.7 101544
12 августа, пт
пт1200:00+20ююз1297100 5.3 101454
03:00+20юз1198100 3.8 101342
06:00+20юз2296100 5.4 101447
09:00+20юз2294100 0.2 101560
12:00+20зюз1295100 1.3 101466
15:00+20сз1295100 0.3 101399
18:00+20юз1196100 0.4 101419
21:00+19юз1195100 0.0 101524
13 августа, сб
сб1300:00+20юз1193100 0.1 101430
03:00+19юз1295100 0.8 101336
06:00+20ююз1194100 0.9 101417
09:00+25с117346 0.0 1015579
12:00+25св2274100 0.1 1013828
15:00+24ссв2287100 1.7 1012479
18:00+21ссв1299100 6.5 1013117
21:00+21зюз119899 2.5 101525